Flag for Congo Weather past 2 weeks in Pointe-Noire, Congo

Now
77 °F

Light rain. Mostly cloudy.


Feels Like: 78 °F
Forecast: 77 / 82 °F
Wind: 3 mph from North

Location: Pointe Airport-Noire

Current Time: Oct 20, 2014 at 9:29:05 AM

Latest Report: Oct 20, 2014 at 8:00 AM


Visibility: 4 mi

Pressure: 29.95 "Hg

Humidity: 89%

Dew point: 73 °F

Location of Pointe-NoireLocation

Historic Weather in Pointe-Noire — Graph

°F

Pointe-Noire temperature yesterday

Maximum temperature yesterday: 84 °F (at 2:00 PM)
Minimum temperature yesterday: 77 °F (at 5:00 AM)
Average temperature yesterday: 80 °F

Past Weeks' High & Low Weather Summary

 TemperatureHumidityPressure
High84 °F (Oct 9, 12:00 PM)100% (Oct 16, 6:00 AM)29.98 "Hg (Oct 16, 6:00 AM)
Low73 °F (Oct 6, 5:00 AM)66% (Oct 9, 12:00 PM)29.77 "Hg (Oct 9, 5:00 PM)
Average79 °F81%29.89 "Hg
* Reported Oct 5 8:00 AM — Oct 20 8:00 AM, Pointe-Noire, Weather by CustomWeather, © 2014

Note: Actual official high and low records may vary slightly from our data, if they occured in-between our weather recording intervals... More about our weather records

Advertising

Pointe-Noire weather history for previous 24 hours

 ConditionsComfort  
Time TempWeatherWind HumidityBarometerVisibility
8:00 AM
Oct 20
77 °FLight rain. Mostly cloudy.3 mph89%29.95 "Hg4 mi
7:00 AM79 °FDrizzle. More clouds than sun.8 mph84%29.92 "Hg4 mi
6:00 AM79 °FMore clouds than sun.7 mph84%29.89 "HgN/A
4:00 AM79 °FMostly cloudy.7 mph84%29.86 "HgN/A
3:00 AM79 °FMostly cloudy.7 mph79%29.89 "HgN/A
2:00 AM79 °FMostly cloudy.7 mph79%29.95 "Hg5 mi
1:00 AM79 °FMostly cloudy.7 mph79%29.92 "Hg5 mi
12:00 AM79 °FOvercast.7 mph79%29.92 "Hg5 mi
11:00 PM
Oct 19
79 °FMostly cloudy.7 mph79%29.92 "HgN/A
10:00 PM79 °FPassing clouds.5 mph79%29.92 "HgN/A
9:00 PM79 °FPassing clouds.6 mph79%29.89 "HgN/A
8:00 PM79 °FPassing clouds.6 mph79%29.86 "HgN/A
7:00 PM79 °FPassing clouds.8 mph79%29.86 "HgN/A
6:00 PM81 °FScattered clouds.10 mph74%29.83 "HgN/A
5:00 PM81 °FScattered clouds.10 mph74%29.83 "HgN/A
4:00 PM82 °FScattered clouds.12 mph70%29.83 "HgN/A
3:00 PM82 °FScattered clouds.12 mph70%29.86 "HgN/A
2:00 PM84 °FScattered clouds.12 mph66%29.86 "HgN/A
1:00 PM82 °FPassing clouds.9 mph70%29.89 "HgN/A
12:00 PM82 °FScattered clouds.10 mph70%29.92 "HgN/A
11:00 AM82 °FBroken clouds.9 mph70%29.92 "HgN/A
10:00 AM82 °FBroken clouds.7 mph66%29.95 "HgN/A
9:00 AM81 °FBroken clouds.7 mph70%29.95 "Hg5 mi
Weather by CustomWeather, © 2014

See weather overviewHow to use our weather pages